Simultaneous Nadir Overpasses (SNOs) Predictions

Prediction of SNOs between GOES-16 and NOAA-19 Satellite Orbit:

Table of predicted SNOs for the next 14.0 days since TLE Epoch: 10/28/2023
Index Date Time (GOES-16) GOES-16 Lat,Lon NOAA-19 Lat,Lon Distance(km) Time Diff (sec)
1 10/28/2023 13:44:09 -0.06, -75.22 -0.58, -72.91 262.76 80
2 10/31/2023 02:04:04 0.05, -75.21 -0.51, -77.65 278.59 80
3 11/01/2023 01:51:57 0.05, -75.21 0.19, -74.70 58.79 80
4 11/02/2023 01:39:50 0.05, -75.22 0.84, -71.75 396.15 80
5 11/03/2023 14:09:09 -0.04, -75.26 0.95, -79.42 475.77 80
6 11/04/2023 13:57:03 -0.04, -75.27 0.22, -76.48 137.75 80
7 11/05/2023 13:47:35 -0.03, -75.28 -0.45, -73.53 200.52 80
8 11/08/2023 02:07:31 0.03, -75.30 -0.64, -78.26 338.04 80
9 11/09/2023 01:52:44 0.03, -75.32 0.02, -75.31 1.17 80
10 11/10/2023 01:40:36 0.03, -75.34 0.69, -72.36 339.63 80
